Powrót do katalogu

STARLINK-4021

AktywnyŁącznośćVLEO
NORAD 53149·PAYLOAD·🇺🇸 United States

Wystrzelony Jul 17, 2022 z Cape Canaveral Space Force Station

Loading…

Następne Przeloty (najbliższe 24 godziny)

TLE

ŚwieżeSource: CelesTrak SupGP

Epoka: Sep 14, 2026, 20:54 UTC

1 53149C 22083T   26257.87131944 -.00004804  00000+0 -14196-3 0  2574
2 53149  53.1599  21.8511 0001217  80.8087  67.4102 15.34388972    17

Śledź STARLINK-4021 w czasie rzeczywistym z AllMySat

Download on the App Store